Location: Milton Keynes
(52.0316°N, 0.7531°W)
Time: 14:08:43
(UTC+00:00)

OTV 5 (USA 277) - Pass Details

Date: 25 January 2019
Orbit: 342 x 346 km, 54.5° (Epoch: 17 February)

Event Time Altitude Azimuth Distance (km) Brightness Sun altitude
Rises 06:28:49 0° 189° (S) 2,124 ? -12.9°
Reaches altitude 10° 06:32:07 10° 147° (SSE) 1,291 ? -12.4°
Maximum altitude 06:32:47 11° 134° (SE) 1,261 ? -12.3°
Drops below altitude 10° 06:33:26 10° 121° (ESE) 1,294 ? -12.2°
Sets 06:36:46 0° 79° (E) 2,140 ? -11.7°
